Location: Bazugues
(43.4465°N, 0.3432°E)
Time: 15:00:12
(UTC+00:00)

Cosmos 2369 Rocket - Pass Details

Date: 12 January 2026
Orbit: 827 x 852 km, 71.0° (Epoch: 18 February)

Event Time Altitude Azimuth Distance (km) Brightness Sun altitude
Rises 17:22:02 0° 335° (NNW) 3,429 5.4 -6.9°
Reaches altitude 10° 17:24:30 10° 337° (NNW) 2,488 4.7 -7.4°
Maximum altitude 17:30:14 82° 65° (ENE) 862 2.2 -8.3°
Drops below altitude 10° 17:35:54 10° 153° (SSE) 2,460 4.6 -9.3°
Sets 17:38:20 0° 155° (SSE) 3,388 5.3 -9.7°
